SCP
0 0 0 0 0 0 0 0 0 0 0 0 0 0 0 0 0 -0 -0 -0 -0 -0 -0 -0 -0 -0 -0 0 0 -0 0 0 0 0 0 0 0 -0 -0 -0 -0 -0 -0 0
0 0 0 0 0 0 0 0 0 0 0 0 -0 0 0 0 -0 -0 -0 -0 -0 -0 -0 -0 -0 -0 -0 -0 -0 -0 0 0 0 -0 -0 -0 0 0 -0 -0 0 0 -0 -0
0 0 0 0 0 0 0 0 0 0 0 0 -0 0 0 0 -0 -0 -0 -0 -0 -0 -0 -0 -0 -0 -0 -0 -0 -0 -0 0 0 -0 0 -0 -0 0 -0 -0 0 0 0 0
0 0 0 0 0 0 0 0 0 0 0 0 -0 -0 0 0 -0 -0 -0 -0 -0 -0 -0 -0 -0 -0 -0 -0 -0 -0 -0 0 0 -0 0 0 0 0 0 0 0 0 0 0
0 0 0 0 0 0 0 0 0 0 0 -0 -0 0 0 -0 -0 -0 -0 -0 -0 -0 -0 -0 -0 -0 -0 -0 -0 -0 -0 -0 0 0 0 -0 0 0 0 0 0 0 0 0
0 0 0 0 0 0 0 0 0 0 0 0 -0 0 0 0 0 -0 -0 -0 -0 -0 -0 -0 -0 -0 -0 -0 -0 -0 0 0 -0 -0 0 0 0 0 0 0 0 0 0 0
0 0 0 0 0 0 0 0 0 0 0 0 0 0 0 0 0 0 -0 0 -0 -0 -0 -0 -0 -0 -0 -0 -0 -0 0 0 0 0 0 0 0 0 0 0 0 0 0 0
0 0 0 0 0 0 0 0 0 0 0 0 0 0 0 0 0 0 -0 -0 -0 -0 -0 -0 -0 -0 -0 -0 -0 -0 -0 -0 0 0 0 0 0 0 0 0 0 0 0 0
0 0 0 0 0 0 0 0 0 0 0 0 0 0 0 0 0 0 -0 -0 0 -0 -0 -0 -0 -0 -0 0 -0 -0 -0 -0 -0 -0 0 -0 -0 -0 0 0 0 0 0 0
0 0 0 0 0 0 0 0 0 0 0 0 0 0 0 0 0 0 -0 -0 -0 -0 -0 -0 -0 -0 0 -0 -0 -0 -0 -0 -0 -0 -0 -0 0 0 0 0 0 0 0 0
0 0 0 0 0 0 0 0 0 0 0 0 0 0 0 0 0 0 0 0 0 -0 -0 -0 -0 -0 -0 0 -0 -0 -0 -0 -0 -0 -0 -0 0 0 0 0 0 0 0 0
0 0 0 0 0 0 0 0 0 0 0 0 0 0 0 0 0 0 0 0 0 0 0 -0 -0 -0 -0 -0 -0 -0 -0 -0 -0 -0 -0 -0 0 -0 0 0 0 0 0 0
0 0 0 0 0 0 0 0 0 0 0 0 0 0 0 0 0 0 0 0 0 0 0 0 -0 -0 -0 -0 -0 -0 -0 -0 -0 -0 -0 -0 0 -0 -0 -0 -0 -0 -0 0
0 0 0 0 0 0 0 0 0 0 0 0 0 0 0 0 0 0 0 0 0 0 0 0 0 -0 -0 -0 -0 -0 -0 0 0 0 0 -0 -0 0 -0 -0 -0 -0 -0 -0
0 0 0 0 0 0 0 0 0 0 0 0 0 0 0 0 0 0 0 0 0 0 0 0 0 0 0 -0 -0 -0 -0 0 0 0 0 -0 -0 -0 -0 -0 -0 -0 0 0
0 0 -0 -0 -0 0 0 0 0 0 0 0 0 0 0 0 0 0 0 0 0 0 -0 -0 0 0 0 0 0 0 0 0 0 0 0 0 0 -0 -0 -0 -0 -0 -0 -0
0 0 0 0 -0 -0 0 0 0 0 0 0 0 0 0 0 0 0 0 0 0 0 0 0 0 0 0 0 0 0 0 0 0 0 0 0 0 0 0 -0 -0 -0 -0 0
0 0 0 0 0 -0 -0 0 0 0 0 0 0 0 0 0 0 0 0 0 0 0 0 0 0 0 0 0 0 0 0 0 0 0 0 0 0 0 0 0 0 0 0 0
0 0 0 0 0 0 -0 -0 -0 0 0 0 0 0 0 0 0 0 0 0 0 0 0 0 0 0 0 0 0 0 0 0 0 0 0 0 0 0 0 0 0 0 0 0
0 0 0 0 0 0 0 -0 -0 -0 0 0 0 0 0 0 0 0 0 0 0 0 0 0 0 0 0 0 0 0 0 0 0 0 0 0 0 0 0 0 0 0 0 0
0 0 0 0 0 0 0 0 0 -0 0 0 0 0 0 0 0 0 0 0 0 0 0 0 0 0 0 0 0 0 0 0 0 0 0 0 0 0 0 0 0 0 0 0
0 -0 0 0 0 0 0 0 0 0 0 0 0 0 0 0 0 0 0 0 0 0 0 0 0 0 0 0 0 0 0 0 0 0 0 0 0 0 0 0 0 0 0 0
-0 0 -0 -0 0 0 0 0 0 0 0 0 0 0 0 0 0 0 0 0 0 0 0 0 0 0 0 0 0 0 0 0 0 0 0 0 0 0 0 0 0 0 0 0
-0 -0 0 -0 -0 -0 0 0 0 0 0 0 0 0 0 0 0 0 0 0 0 0 0 0 0 0 0 0 0 0 0 0 0 0 -0 0 0 0 0 0 0 0 0 0
-0 -0 -0 -0 -0 0 0 0 0 0 0 0 0 0 0 0 0 0 0 0 0 0 0 0 0 0 0 0 0 0 0 0 0 0 0 0 0 0 0 0 -0 0 0 0
-0 -0 -0 -0 -0 -0 -0 -0 -0 -0 0 0 0 0 0 0 0 0 0 0 0 0 0 0 0 0 0 0 0 0 0 0 0 0 0 0 0 0 -0 0 0 0 0 0
-0 -0 -0 -0 -0 -0 -0 -0 -0 -0 -0 0 0 0 0 0 0 0 0 0 0 0 0 0 0 0 0 0 0 0 0 0 0 0 0 0 0 -0 -0 0 0 0 0 0
Wind_Speed_500mb
29 21 17 30 40 49 44 33 21 15 45 39 27 20 8 16 27 35 46 50 54 56 52 54 53 46 40 37 32 28 23 21 14 8 5 10 18 21 25 27 25 24 25 24
19 27 22 17 11 30 50 47 41 32 36 25 30 25 7 20 37 41 46 49 52 56 56 56 55 50 44 41 36 31 27 23 16 11 14 24 24 26 28 26 27 26 24 21
10 9 13 20 29 18 24 40 41 41 51 30 32 28 18 26 47 52 53 56 64 64 65 59 57 52 47 46 39 33 29 26 22 16 26 30 28 25 23 24 24 22 21 20
5 7 29 9 18 6 24 18 21 22 21 21 24 47 44 34 51 56 50 54 60 64 66 59 56 52 45 47 42 37 34 32 31 23 30 30 28 23 19 19 19 17 11 12
5 10 10 8 20 13 3 11 22 19 22 28 34 39 37 24 41 53 68 61 66 68 67 60 60 56 51 50 47 42 38 38 39 32 30 32 29 24 18 18 18 16 13 11
5 9 11 14 27 13 7 11 25 24 23 26 33 20 4 33 18 25 41 58 63 67 68 60 61 60 56 53 54 47 42 41 44 38 31 30 24 20 17 18 18 17 17 18
8 3 6 27 28 30 16 8 31 31 31 28 17 24 58 53 33 18 40 47 59 69 74 65 65 65 61 57 59 52 44 43 43 42 33 30 26 21 15 15 18 20 22 25
7 6 9 36 6 8 11 20 28 32 34 37 38 46 45 43 37 17 41 56 65 71 75 67 66 68 66 63 57 54 47 44 42 43 38 36 30 26 22 16 19 22 24 28
8 6 13 18 8 17 21 23 30 33 39 37 40 43 40 40 31 19 39 56 62 75 79 71 68 69 69 62 59 58 52 47 44 42 42 41 35 33 29 23 19 23 25 28
5 9 21 10 17 27 31 32 34 36 38 40 40 43 40 34 27 20 40 58 67 68 84 82 72 67 61 63 61 61 57 51 48 44 47 43 40 33 32 28 26 25 29 27
4 15 17 6 31 40 44 40 44 43 39 40 45 42 41 36 28 20 36 53 70 80 88 88 78 68 66 63 66 65 60 54 53 51 46 47 45 41 36 31 24 22 26 31
4 18 18 31 38 46 44 47 49 46 51 45 45 47 49 37 29 22 38 50 69 75 78 86 85 75 68 67 68 68 67 62 59 58 54 52 50 46 42 38 31 25 15 14
12 34 42 44 37 29 45 46 47 44 44 46 47 51 51 42 30 23 35 48 63 81 86 89 90 83 72 70 72 69 69 70 65 62 61 57 54 52 48 42 40 35 31 27
29 28 28 26 45 45 44 43 43 40 39 41 43 49 52 49 37 23 32 48 54 72 79 83 86 86 77 73 73 73 69 65 68 68 67 64 60 56 48 47 49 46 40 38
22 28 32 46 45 38 40 44 43 42 46 47 46 47 53 57 50 34 22 32 44 55 75 73 79 82 78 78 77 76 77 74 68 67 67 67 61 59 53 46 44 43 49 46
31 30 27 34 42 40 40 42 41 41 43 47 49 49 50 50 45 40 23 24 44 64 77 80 78 79 77 76 78 80 77 73 73 68 68 67 70 65 57 56 53 48 50 52
32 34 38 42 46 46 44 42 41 42 42 43 46 48 50 50 47 45 34 18 40 43 61 77 80 77 75 76 76 81 80 79 77 75 69 67 69 72 67 62 59 57 56 52
32 36 40 39 45 47 48 45 44 47 43 43 47 48 49 47 46 47 42 25 17 37 46 50 60 73 73 75 76 80 82 82 82 85 80 74 73 71 71 67 63 61 58 59
35 37 38 36 37 40 45 48 46 49 46 43 45 48 47 46 44 39 38 29 15 11 18 34 45 55 67 71 71 73 74 79 82 84 84 83 79 73 73 74 73 69 63 63
35 38 42 40 36 35 43 46 47 48 45 42 43 48 48 43 40 36 31 31 18 11 9 16 30 39 44 51 53 60 67 71 75 76 83 82 82 86 83 75 73 71 69 67
45 42 43 51 49 41 40 45 46 48 47 40 39 45 49 45 36 35 28 24 24 18 24 26 21 33 46 49 52 53 54 57 62 66 70 77 77 73 76 85 80 79 77 72
43 48 43 43 52 54 45 46 42 43 45 43 42 42 46 46 35 33 27 22 20 22 25 28 45 36 24 33 40 35 27 18 39 55 58 64 69 72 69 76 74 74 79 77
41 44 44 44 48 51 55 51 50 41 41 41 45 43 43 47 39 32 29 21 21 21 23 25 38 34 27 45 48 40 50 48 69 53 37 37 44 61 66 72 65 61 63 66
40 42 40 44 47 53 55 54 52 46 39 37 42 47 48 49 48 42 38 43 38 30 31 29 33 43 40 33 44 44 57 60 70 64 46 47 50 47 53 66 81 58 58 57
43 45 38 45 59 59 57 54 53 60 47 31 34 41 50 54 49 46 42 36 34 32 33 38 38 38 43 45 52 52 55 58 56 57 69 78 79 55 53 69 80 80 61 59
35 37 36 38 39 46 53 52 61 59 58 45 31 34 37 47 53 54 52 47 44 35 35 44 43 40 39 46 52 54 54 57 57 62 74 81 107 101 92 86 77 89 68 62
29 30 30 38 40 44 53 57 63 70 67 50 35 31 35 40 46 58 55 50 48 39 38 43 48 43 48 49 48 51 54 69 64 52 44 70 86 100 98 87 83 75 58 57
Wind_Direction_500mb
268 274 300 174 200 204 207 216 221 205 227 240 265 304 10 155 164 177 169 170 173 174 178 178 176 175 172 173 174 172 167 166 160 131 92 139 142 140 136 136 137 138 144 147
257 256 256 255 198 214 209 221 237 250 257 240 282 304 231 181 175 191 177 173 175 179 182 179 178 176 174 173 172 169 167 168 156 128 115 131 128 134 136 132 132 128 136 144
209 313 253 244 237 212 210 224 221 225 241 260 267 277 275 196 187 198 182 177 181 184 184 183 182 178 175 175 174 174 172 170 159 139 131 129 132 134 133 132 134 136 140 147
249 220 214 116 38 309 214 56 5 285 287 329 318 298 295 252 212 196 187 180 183 185 187 185 183 179 176 177 176 178 177 173 163 147 140 132 123 120 128 142 141 134 131 157
234 201 105 47 17 343 49 74 18 344 332 322 317 308 271 257 217 215 193 195 190 188 187 184 184 178 179 179 181 182 185 178 173 164 146 141 128 111 116 133 146 137 130 134
205 220 190 9 333 301 179 140 4 353 340 330 331 253 220 1 341 234 224 191 188 187 187 185 183 181 182 182 184 186 188 184 180 177 174 167 151 132 110 128 136 140 134 130
208 102 87 352 347 153 187 37 341 347 334 326 308 291 302 313 313 265 217 197 188 188 186 184 182 182 185 187 189 185 188 193 189 189 184 182 174 162 141 131 131 140 142 136
203 162 136 359 20 75 353 339 336 338 334 323 312 305 305 301 293 270 205 199 194 188 186 185 185 186 188 192 187 185 188 196 195 192 189 184 179 177 172 151 150 137 143 142
6 49 355 350 29 37 2 337 340 335 334 330 322 319 313 303 289 262 205 201 198 188 186 187 189 191 192 190 187 185 188 194 198 196 195 193 187 189 185 178 169 161 151 154
318 354 338 11 45 8 359 350 343 341 334 338 327 328 319 310 293 252 204 199 200 192 189 189 190 194 197 187 186 188 190 194 198 201 199 198 198 195 199 193 187 182 176 170
352 348 341 28 3 349 344 350 346 341 341 341 337 332 328 313 299 257 211 201 200 197 196 192 190 192 196 190 188 190 193 197 201 203 201 203 204 206 206 207 203 196 193 193
19 301 289 301 326 332 336 338 345 339 338 340 348 339 337 320 302 266 213 203 203 202 203 197 195 195 198 192 193 192 194 197 202 204 204 206 208 209 215 215 212 210 191 194
309 307 298 299 312 329 332 334 341 338 337 334 345 348 347 334 315 273 215 208 207 205 205 204 198 197 200 198 198 198 198 198 201 205 207 208 206 206 205 204 213 214 216 215
323 329 316 313 316 320 324 328 333 336 338 340 339 347 351 352 340 318 229 220 214 205 207 208 204 201 203 204 203 204 205 206 202 202 209 210 212 210 206 210 211 214 214 221
327 323 305 305 311 320 327 333 334 337 337 339 341 341 348 352 355 334 263 221 216 204 208 209 205 204 205 207 207 207 208 208 208 208 209 213 214 216 217 216 218 220 224 219
319 317 317 318 319 324 324 327 330 328 333 332 335 337 340 344 346 349 314 214 212 210 209 212 209 208 207 210 209 210 212 213 210 211 211 212 216 218 222 224 226 225 231 229
313 324 325 321 319 322 323 318 315 315 319 322 326 327 333 340 345 3 1 254 215 227 221 217 215 214 211 211 211 212 212 216 213 215 215 215 216 219 221 225 229 232 235 234
307 298 297 297 302 310 314 313 313 307 307 310 313 317 323 330 337 350 359 344 271 231 222 223 224 222 216 214 212 212 214 217 217 216 218 217 219 221 222 224 227 231 232 237
345 331 314 308 303 304 305 305 304 301 300 302 303 305 310 314 323 334 348 344 312 278 233 223 219 220 222 219 216 215 217 218 220 218 221 224 223 224 227 230 231 234 236 242
335 338 341 338 322 319 310 302 299 297 295 290 294 295 299 299 310 317 336 338 336 243 206 208 203 209 220 222 213 213 219 222 225 222 222 226 228 230 230 231 234 235 236 239
344 344 345 351 342 326 318 315 302 293 292 287 282 283 288 290 292 301 316 329 320 309 228 204 168 192 199 205 209 211 218 222 223 227 231 231 232 234 237 237 236 237 239 238
345 341 336 341 349 349 343 343 323 305 290 284 275 272 279 280 276 277 287 298 319 314 303 255 229 222 196 177 178 188 182 211 242 239 233 236 238 240 239 245 241 240 239 238
351 350 347 345 346 348 351 344 333 319 296 281 268 264 261 272 264 267 274 284 309 309 297 283 257 245 242 227 219 217 228 234 267 241 245 249 260 263 251 247 245 238 235 231
355 355 350 0 358 358 349 349 345 341 321 284 271 264 255 258 259 250 256 273 286 290 292 276 251 245 248 250 231 226 225 216 228 251 260 258 250 261 274 256 256 227 229 228
359 2 4 9 12 8 355 351 2 354 338 317 295 275 259 254 253 246 248 252 265 281 283 284 270 256 246 243 244 239 237 234 232 231 236 248 245 235 268 271 257 250 232 232
4 6 359 3 6 2 356 2 8 4 355 338 310 289 277 256 254 248 246 257 265 270 274 285 274 255 253 244 236 231 228 232 233 245 254 246 249 237 256 263 249 250 234 231
1 4 360 0 360 360 13 14 11 6 11 0 333 299 285 273 255 248 251 256 257 262 267 276 276 262 242 237 240 230 234 233 250 245 247 231 213 219 253 250 242 232 226 225
Wind_Speed_850mb
29 21 17 30 40 49 44 33 21 15 45 39 27 20 8 16 27 35 46 50 54 56 52 54 53 46 40 37 32 28 23 21 14 8 5 10 18 21 25 27 25 24 25 24
19 27 22 17 11 30 50 47 41 32 36 25 30 25 7 20 37 41 46 49 52 56 56 56 55 50 44 41 36 31 27 23 16 11 14 24 24 26 28 26 27 26 24 21
10 9 13 20 29 18 24 40 41 41 51 30 32 28 18 26 47 52 53 56 64 64 65 59 57 52 47 46 39 33 29 26 22 16 26 30 28 25 23 24 24 22 21 20
5 7 29 9 18 6 24 18 21 22 21 21 24 47 44 34 51 56 50 54 60 64 66 59 56 52 45 47 42 37 34 32 31 23 30 30 28 23 19 19 19 17 11 12
5 10 10 8 20 13 3 11 22 19 22 28 34 39 37 24 41 53 68 61 66 68 67 60 60 56 51 50 47 42 38 38 39 32 30 32 29 24 18 18 18 16 13 11
5 9 11 14 27 13 7 11 25 24 23 26 33 20 4 33 18 25 41 58 63 67 68 60 61 60 56 53 54 47 42 41 44 38 31 30 24 20 17 18 18 17 17 18
8 3 6 27 28 30 16 8 31 31 31 28 17 24 58 53 33 18 40 47 59 69 74 65 65 65 61 57 59 52 44 43 43 42 33 30 26 21 15 15 18 20 22 25
7 6 9 36 6 8 11 20 28 32 34 37 38 46 45 43 37 17 41 56 65 71 75 67 66 68 66 63 57 54 47 44 42 43 38 36 30 26 22 16 19 22 24 28
8 6 13 18 8 17 21 23 30 33 39 37 40 43 40 40 31 19 39 56 62 75 79 71 68 69 69 62 59 58 52 47 44 42 42 41 35 33 29 23 19 23 25 28
5 9 21 10 17 27 31 32 34 36 38 40 40 43 40 34 27 20 40 58 67 68 84 82 72 67 61 63 61 61 57 51 48 44 47 43 40 33 32 28 26 25 29 27
4 15 17 6 31 40 44 40 44 43 39 40 45 42 41 36 28 20 36 53 70 80 88 88 78 68 66 63 66 65 60 54 53 51 46 47 45 41 36 31 24 22 26 31
4 18 18 31 38 46 44 47 49 46 51 45 45 47 49 37 29 22 38 50 69 75 78 86 85 75 68 67 68 68 67 62 59 58 54 52 50 46 42 38 31 25 15 14
12 34 42 44 37 29 45 46 47 44 44 46 47 51 51 42 30 23 35 48 63 81 86 89 90 83 72 70 72 69 69 70 65 62 61 57 54 52 48 42 40 35 31 27
29 28 28 26 45 45 44 43 43 40 39 41 43 49 52 49 37 23 32 48 54 72 79 83 86 86 77 73 73 73 69 65 68 68 67 64 60 56 48 47 49 46 40 38
22 28 32 46 45 38 40 44 43 42 46 47 46 47 53 57 50 34 22 32 44 55 75 73 79 82 78 78 77 76 77 74 68 67 67 67 61 59 53 46 44 43 49 46
31 30 27 34 42 40 40 42 41 41 43 47 49 49 50 50 45 40 23 24 44 64 77 80 78 79 77 76 78 80 77 73 73 68 68 67 70 65 57 56 53 48 50 52
32 34 38 42 46 46 44 42 41 42 42 43 46 48 50 50 47 45 34 18 40 43 61 77 80 77 75 76 76 81 80 79 77 75 69 67 69 72 67 62 59 57 56 52
32 36 40 39 45 47 48 45 44 47 43 43 47 48 49 47 46 47 42 25 17 37 46 50 60 73 73 75 76 80 82 82 82 85 80 74 73 71 71 67 63 61 58 59
35 37 38 36 37 40 45 48 46 49 46 43 45 48 47 46 44 39 38 29 15 11 18 34 45 55 67 71 71 73 74 79 82 84 84 83 79 73 73 74 73 69 63 63
35 38 42 40 36 35 43 46 47 48 45 42 43 48 48 43 40 36 31 31 18 11 9 16 30 39 44 51 53 60 67 71 75 76 83 82 82 86 83 75 73 71 69 67
45 42 43 51 49 41 40 45 46 48 47 40 39 45 49 45 36 35 28 24 24 18 24 26 21 33 46 49 52 53 54 57 62 66 70 77 77 73 76 85 80 79 77 72
43 48 43 43 52 54 45 46 42 43 45 43 42 42 46 46 35 33 27 22 20 22 25 28 45 36 24 33 40 35 27 18 39 55 58 64 69 72 69 76 74 74 79 77
41 44 44 44 48 51 55 51 50 41 41 41 45 43 43 47 39 32 29 21 21 21 23 25 38 34 27 45 48 40 50 48 69 53 37 37 44 61 66 72 65 61 63 66
40 42 40 44 47 53 55 54 52 46 39 37 42 47 48 49 48 42 38 43 38 30 31 29 33 43 40 33 44 44 57 60 70 64 46 47 50 47 53 66 81 58 58 57
43 45 38 45 59 59 57 54 53 60 47 31 34 41 50 54 49 46 42 36 34 32 33 38 38 38 43 45 52 52 55 58 56 57 69 78 79 55 53 69 80 80 61 59
35 37 36 38 39 46 53 52 61 59 58 45 31 34 37 47 53 54 52 47 44 35 35 44 43 40 39 46 52 54 54 57 57 62 74 81 107 101 92 86 77 89 68 62
29 30 30 38 40 44 53 57 63 70 67 50 35 31 35 40 46 58 55 50 48 39 38 43 48 43 48 49 48 51 54 69 64 52 44 70 86 100 98 87 83 75 58 57
Wind_Direction_850mb
268 274 300 174 200 204 207 216 221 205 227 240 265 304 10 155 164 177 169 170 173 174 178 178 176 175 172 173 174 172 167 166 160 131 92 139 142 140 136 136 137 138 144 147
257 256 256 255 198 214 209 221 237 250 257 240 282 304 231 181 175 191 177 173 175 179 182 179 178 176 174 173 172 169 167 168 156 128 115 131 128 134 136 132 132 128 136 144
209 313 253 244 237 212 210 224 221 225 241 260 267 277 275 196 187 198 182 177 181 184 184 183 182 178 175 175 174 174 172 170 159 139 131 129 132 134 133 132 134 136 140 147
249 220 214 116 38 309 214 56 5 285 287 329 318 298 295 252 212 196 187 180 183 185 187 185 183 179 176 177 176 178 177 173 163 147 140 132 123 120 128 142 141 134 131 157
234 201 105 47 17 343 49 74 18 344 332 322 317 308 271 257 217 215 193 195 190 188 187 184 184 178 179 179 181 182 185 178 173 164 146 141 128 111 116 133 146 137 130 134
205 220 190 9 333 301 179 140 4 353 340 330 331 253 220 1 341 234 224 191 188 187 187 185 183 181 182 182 184 186 188 184 180 177 174 167 151 132 110 128 136 140 134 130
208 102 87 352 347 153 187 37 341 347 334 326 308 291 302 313 313 265 217 197 188 188 186 184 182 182 185 187 189 185 188 193 189 189 184 182 174 162 141 131 131 140 142 136
203 162 136 359 20 75 353 339 336 338 334 323 312 305 305 301 293 270 205 199 194 188 186 185 185 186 188 192 187 185 188 196 195 192 189 184 179 177 172 151 150 137 143 142
6 49 355 350 29 37 2 337 340 335 334 330 322 319 313 303 289 262 205 201 198 188 186 187 189 191 192 190 187 185 188 194 198 196 195 193 187 189 185 178 169 161 151 154
318 354 338 11 45 8 359 350 343 341 334 338 327 328 319 310 293 252 204 199 200 192 189 189 190 194 197 187 186 188 190 194 198 201 199 198 198 195 199 193 187 182 176 170
352 348 341 28 3 349 344 350 346 341 341 341 337 332 328 313 299 257 211 201 200 197 196 192 190 192 196 190 188 190 193 197 201 203 201 203 204 206 206 207 203 196 193 193
19 301 289 301 326 332 336 338 345 339 338 340 348 339 337 320 302 266 213 203 203 202 203 197 195 195 198 192 193 192 194 197 202 204 204 206 208 209 215 215 212 210 191 194
309 307 298 299 312 329 332 334 341 338 337 334 345 348 347 334 315 273 215 208 207 205 205 204 198 197 200 198 198 198 198 198 201 205 207 208 206 206 205 204 213 214 216 215
323 329 316 313 316 320 324 328 333 336 338 340 339 347 351 352 340 318 229 220 214 205 207 208 204 201 203 204 203 204 205 206 202 202 209 210 212 210 206 210 211 214 214 221
327 323 305 305 311 320 327 333 334 337 337 339 341 341 348 352 355 334 263 221 216 204 208 209 205 204 205 207 207 207 208 208 208 208 209 213 214 216 217 216 218 220 224 219
319 317 317 318 319 324 324 327 330 328 333 332 335 337 340 344 346 349 314 214 212 210 209 212 209 208 207 210 209 210 212 213 210 211 211 212 216 218 222 224 226 225 231 229
313 324 325 321 319 322 323 318 315 315 319 322 326 327 333 340 345 3 1 254 215 227 221 217 215 214 211 211 211 212 212 216 213 215 215 215 216 219 221 225 229 232 235 234
307 298 297 297 302 310 314 313 313 307 307 310 313 317 323 330 337 350 359 344 271 231 222 223 224 222 216 214 212 212 214 217 217 216 218 217 219 221 222 224 227 231 232 237
345 331 314 308 303 304 305 305 304 301 300 302 303 305 310 314 323 334 348 344 312 278 233 223 219 220 222 219 216 215 217 218 220 218 221 224 223 224 227 230 231 234 236 242
335 338 341 338 322 319 310 302 299 297 295 290 294 295 299 299 310 317 336 338 336 243 206 208 203 209 220 222 213 213 219 222 225 222 222 226 228 230 230 231 234 235 236 239
344 344 345 351 342 326 318 315 302 293 292 287 282 283 288 290 292 301 316 329 320 309 228 204 168 192 199 205 209 211 218 222 223 227 231 231 232 234 237 237 236 237 239 238
345 341 336 341 349 349 343 343 323 305 290 284 275 272 279 280 276 277 287 298 319 314 303 255 229 222 196 177 178 188 182 211 242 239 233 236 238 240 239 245 241 240 239 238
351 350 347 345 346 348 351 344 333 319 296 281 268 264 261 272 264 267 274 284 309 309 297 283 257 245 242 227 219 217 228 234 267 241 245 249 260 263 251 247 245 238 235 231
355 355 350 0 358 358 349 349 345 341 321 284 271 264 255 258 259 250 256 273 286 290 292 276 251 245 248 250 231 226 225 216 228 251 260 258 250 261 274 256 256 227 229 228
359 2 4 9 12 8 355 351 2 354 338 317 295 275 259 254 253 246 248 252 265 281 283 284 270 256 246 243 244 239 237 234 232 231 236 248 245 235 268 271 257 250 232 232
4 6 359 3 6 2 356 2 8 4 355 338 310 289 277 256 254 248 246 257 265 270 274 285 274 255 253 244 236 231 228 232 233 245 254 246 249 237 256 263 249 250 234 231
1 4 360 0 360 360 13 14 11 6 11 0 333 299 285 273 255 248 251 256 257 262 267 276 276 262 242 237 240 230 234 233 250 245 247 231 213 219 253 250 242 232 226 225